TimePST,TemperatureF,Dew PointF,Humidity,Sea Level PressureIn,VisibilityMPH,Wind Direction,Wind SpeedMPH,Gust SpeedMPH,PrecipitationIn,Events,Conditions,WindDirDegrees,DateUTC
12:15 AM,26.6,24.8,93,30.30,10.0,Calm,Calm,-,N/A,,Overcast,0,2013-02-03 08:15:00
12:35 AM,26.6,24.8,93,30.29,10.0,Calm,Calm,-,N/A,,Overcast,0,2013-02-03 08:35:00
12:55 AM,26.6,23.0,86,30.29,10.0,Calm,Calm,-,N/A,,Overcast,0,2013-02-03 08:55:00
1:15 AM,26.6,23.0,86,30.28,10.0,Calm,Calm,-,N/A,,Overcast,0,2013-02-03 09:15:00
1:35 AM,26.6,23.0,86,30.28,10.0,Calm,Calm,-,N/A,,Overcast,0,2013-02-03 09:35:00
1:55 AM,26.6,24.8,93,30.28,10.0,Calm,Calm,-,N/A,,Overcast,0,2013-02-03 09:55:00
2:15 AM,24.8,23.0,93,30.27,10.0,SSE,4.6,-,N/A,,Mostly Cloudy,160,2013-02-03 10:15:00
2:35 AM,41.0,39.2,93,30.27,10.0,Calm,Calm,-,N/A,,Clear,0,2013-02-03 10:35:00
3:15 AM,23.0,19.4,86,30.26,10.0,Calm,Calm,-,N/A,,Partly Cloudy,0,2013-02-03 11:15:00
3:35 AM,23.0,21.2,93,30.26,10.0,SSW,3.5,-,N/A,,Partly Cloudy,200,2013-02-03 11:35:00
3:55 AM,23.0,21.2,93,30.25,9.0,Calm,Calm,-,N/A,,Scattered Clouds,0,2013-02-03 11:55:00
4:15 AM,23.0,21.2,93,30.25,10.0,Calm,Calm,-,N/A,,Overcast,0,2013-02-03 12:15:00
4:35 AM,24.8,21.2,86,30.25,10.0,Calm,Calm,-,N/A,,Overcast,0,2013-02-03 12:35:00
4:55 AM,24.8,21.2,86,30.24,10.0,Calm,Calm,-,N/A,,Overcast,0,2013-02-03 12:55:00
5:15 AM,24.8,21.2,86,30.24,10.0,Calm,Calm,-,N/A,,Overcast,0,2013-02-03 13:15:00
5:35 AM,24.8,23.0,93,30.23,10.0,SSW,3.5,-,N/A,,Overcast,200,2013-02-03 13:35:00
5:55 AM,24.8,23.0,93,30.23,10.0,SW,3.5,-,N/A,,Overcast,220,2013-02-03 13:55:00
6:15 AM,24.8,23.0,93,30.23,10.0,WSW,4.6,-,N/A,,Overcast,250,2013-02-03 14:15:00
6:35 AM,26.6,23.0,86,30.24,10.0,Calm,Calm,-,N/A,,Overcast,0,2013-02-03 14:35:00
6:55 AM,32.0,28.4,87,30.24,10.0,Calm,Calm,-,N/A,,Overcast,0,2013-02-03 14:55:00
7:15 AM,24.8,23.0,93,30.24,10.0,SE,5.8,-,N/A,,Overcast,130,2013-02-03 15:15:00
7:35 AM,26.6,23.0,86,30.25,10.0,SW,5.8,-,N/A,,Overcast,220,2013-02-03 15:35:00
7:55 AM,-9999,-9999,N/A,30.25,10.0,West,3.5,-,N/A,,Scattered Clouds,260,2013-02-03 15:55:00
8:15 AM,-9999,-9999,N/A,30.24,10.0,South,3.5,-,N/A,,Clear,180,2013-02-03 16:15:00
8:35 AM,-9999,-9999,N/A,30.24,10.0,Calm,Calm,-,N/A,,Clear,0,2013-02-03 16:35:00
8:55 AM,-9999,-9999,N/A,30.24,10.0,Calm,Calm,-,N/A,,Clear,0,2013-02-03 16:55:00
9:15 AM,-9999,-9999,N/A,30.24,10.0,Calm,Calm,-,N/A,,Clear,0,2013-02-03 17:15:00
9:35 AM,-9999,-9999,N/A,30.24,10.0,Calm,Calm,-,N/A,,Clear,0,2013-02-03 17:35:00
9:55 AM,-9999,-9999,N/A,30.24,10.0,Calm,Calm,-,N/A,,Clear,0,2013-02-03 17:55:00
10:15 AM,-9999,-9999,N/A,30.25,10.0,Calm,Calm,-,N/A,,Clear,0,2013-02-03 18:15:00
10:55 AM,-9999,-9999,N/A,30.25,10.0,Calm,Calm,-,N/A,,Clear,0,2013-02-03 18:55:00
11:15 AM,-9999,-9999,N/A,30.24,10.0,Calm,Calm,-,N/A,,Clear,0,2013-02-03 19:15:00
11:35 AM,-9999,-9999,N/A,30.23,10.0,Calm,Calm,-,N/A,,Clear,0,2013-02-03 19:35:00
11:55 AM,-9999,-9999,N/A,30.22,10.0,Calm,Calm,-,N/A,,Clear,0,2013-02-03 19:55:00
12:15 PM,-9999,-9999,N/A,30.21,10.0,Calm,Calm,-,N/A,,Clear,0,2013-02-03 20:15:00
12:35 PM,44.6,23.0,43,30.21,10.0,Calm,Calm,-,N/A,,Clear,0,2013-02-03 20:35:00
12:55 PM,46.4,23.0,40,30.20,10.0,Calm,Calm,-,N/A,,Clear,0,2013-02-03 20:55:00
1:15 PM,46.4,23.0,40,30.19,10.0,Calm,Calm,-,N/A,,Clear,0,2013-02-03 21:15:00
1:35 PM,46.4,24.8,43,30.19,10.0,ENE,5.8,-,N/A,,Clear,60,2013-02-03 21:35:00
1:55 PM,46.4,24.8,43,30.19,10.0,NE,6.9,-,N/A,,Clear,40,2013-02-03 21:55:00
2:15 PM,46.4,24.8,43,30.20,10.0,NNE,5.8,-,N/A,,Clear,20,2013-02-03 22:15:00
2:35 PM,46.4,26.6,46,30.20,10.0,NNE,6.9,-,N/A,,Clear,20,2013-02-03 22:35:00
2:55 PM,46.4,26.6,46,30.21,10.0,NE,5.8,-,N/A,,Clear,50,2013-02-03 22:55:00
3:15 PM,46.4,26.6,46,30.21,10.0,NNE,8.1,-,N/A,,Clear,30,2013-02-03 23:15:00
3:35 PM,44.6,28.4,53,30.21,10.0,NE,5.8,-,N/A,,Clear,50,2013-02-03 23:35:00
3:55 PM,42.8,26.6,53,30.20,10.0,Calm,Calm,-,N/A,,Clear,0,2013-02-03 23:55:00
4:15 PM,42.8,26.6,53,30.20,10.0,Calm,Calm,-,N/A,,Clear,0,2013-02-04 00:15:00
4:55 PM,39.2,26.6,61,30.21,10.0,NNE,5.8,-,N/A,,Clear,20,2013-02-04 00:55:00
5:15 PM,35.6,24.8,65,30.21,10.0,Calm,Calm,-,N/A,,Clear,0,2013-02-04 01:15:00
5:35 PM,33.8,26.6,75,30.23,10.0,NNW,9.2,-,N/A,,Clear,330,2013-02-04 01:35:00
5:55 PM,32.0,24.8,75,30.24,10.0,NNW,8.1,-,N/A,,Clear,330,2013-02-04 01:55:00
6:15 PM,32.0,24.8,75,30.22,10.0,Calm,Calm,-,N/A,,Clear,0,2013-02-04 02:15:00
6:35 PM,32.0,24.8,75,30.21,10.0,South,5.8,-,N/A,,Clear,180,2013-02-04 02:35:00
6:55 PM,28.4,23.0,80,30.21,10.0,Calm,Calm,-,N/A,,Clear,0,2013-02-04 02:55:00
7:15 PM,26.6,23.0,86,30.22,10.0,SW,4.6,-,N/A,,Clear,220,2013-02-04 03:15:00
7:35 PM,24.8,21.2,86,30.23,10.0,Calm,Calm,-,N/A,,Clear,0,2013-02-04 03:35:00
7:55 PM,24.8,21.2,86,30.23,10.0,Calm,Calm,-,N/A,,Clear,0,2013-02-04 03:55:00
8:15 PM,23.0,19.4,86,30.24,10.0,Calm,Calm,-,N/A,,Clear,0,2013-02-04 04:15:00
8:35 PM,23.0,19.4,86,30.24,10.0,Calm,Calm,-,N/A,,Clear,0,2013-02-04 04:35:00
8:55 PM,23.0,19.4,86,30.24,10.0,Calm,Calm,-,N/A,,Clear,0,2013-02-04 04:55:00
9:15 PM,23.0,19.4,86,30.25,10.0,West,4.6,-,N/A,,Clear,260,2013-02-04 05:15:00
9:35 PM,21.2,19.4,93,30.25,10.0,South,3.5,-,N/A,,Clear,190,2013-02-04 05:35:00
9:55 PM,19.4,17.6,93,30.24,10.0,SSW,5.8,-,N/A,,Clear,200,2013-02-04 05:55:00
10:15 PM,19.4,17.6,93,30.24,10.0,SSW,6.9,-,N/A,,Clear,200,2013-02-04 06:15:00
10:35 PM,19.4,17.6,93,30.24,10.0,South,3.5,-,N/A,,Clear,190,2013-02-04 06:35:00
10:55 PM,19.4,17.6,93,30.24,10.0,South,5.8,-,N/A,,Clear,190,2013-02-04 06:55:00
11:15 PM,19.4,17.6,93,30.24,10.0,South,5.8,-,N/A,,Clear,190,2013-02-04 07:15:00
11:35 PM,19.4,15.8,86,30.24,10.0,South,3.5,-,N/A,,Clear,180,2013-02-04 07:35:00
11:55 PM,19.4,15.8,86,30.25,10.0,South,3.5,-,N/A,,Clear,170,2013-02-04 07:55:00